Regional Weather Roundup
Issued by NWS Jackson, KY

Home | Current Version | Previous Version | Text Only | Print | Product List | Glossary Off
Versions: 1 2 3 4 5 6 7 8 9 10 11 12 13 14 15 16 17 18 19 20 21 22 23 24 25 26 27 28 29 30 31 32 33 34 35 36 37 38 39 40 41 42 43 44 45 46 47 48 49 50

000
ASUS43 KJKL 011610
RWRJKL

EAST KENTUCKY HOURLY WEATHER ROUNDUP
NATIONAL WEATHER SERVICE JACKSON KY
1200 PM EDT SAT AUG 01 2015

NOTE: "FAIR" INDICATES FEW OR NO CLOUDS BELOW 12,000 FEET WITH
NO SIGNIFICANT WEATHER AND/OR OBSTRUCTIONS TO VISIBILITY.

* THESE REPORTS ARE NOT UNDER NWS QUALITY CONTROL AND MAY NOT
  REPORT WEATHER SUCH AS PRECIPITATION AND FOG.

KYZ079-080-083-085-087-088-110-112-115-119-120-011700
...EASTERN KENTUCKY...

CITY           SKY/WX    TMP DP  RH WIND       PRES   REMARKS
JACKSON        MOSUNNY   81  63  54 VRB3      30.05S
LONDON         SUNNY     83  58  42 NW5       30.05S
SOMERSET*      SUNNY     81  59  47 CALM      30.06R
MONTICELLO*    SUNNY     86  67  52 CALM      30.08R
WILLIAMSBURG*  SUNNY     81  61  50 CALM      30.06
MIDDLESBORO*   SUNNY     81  65  58 CALM      30.06F
HAZARD APT*    MOSUNNY   82  61  47 SW6       30.05S
BLACK MTN*       N/A     72  57  60 NE2         N/A
PIKEVILLE APT* MOSUNNY   79  63  57 W3        30.05S
BIG SANDY*     SUNNY     80  61  52 NW6       30.04S
MOREHEAD APT*  SUNNY     79  61  53 CALM      30.05S
$$

KYZ035-036-041-042-044-050-067-078-099-011700
...CENTRAL KENTUCKY...

CITY           SKY/WX    TMP DP  RH WIND       PRES   REMARKS
MT STERLING*   SUNNY     81  63  54 N6        30.04F
FLEMING/MASON* SUNNY     79  55  44 CALM      30.04S
DANVILLE*      SUNNY     81  61  50 N6        30.05S
RICHMOND*      SUNNY     81  59  47 NW7       30.04S
LEXINGTON      SUNNY     82  60  47 NW6       30.03S
FRANKFORT      SUNNY     82  59  45 NW7       30.02S
$$

KYZ091>093-OHZ055-061-077-WVZ005-015-034-035-042-011700
...SOUTHERN OHIO/WEST VIRGINIA...

CITY           SKY/WX    TMP DP  RH WIND       PRES   REMARKS
COVINGTON      MOSUNNY   80  56  43 N9        30.03S
COLUMBUS       MOSUNNY   80  53  39 W12       29.98S
DAYTON         MOSUNNY   78  59  51 VRB7      30.03R
WILMINGTON     SUNNY     78  55  44 NW9       30.02S
HUNTINGTON     SUNNY     81  55  40 VRB5      30.01S
CHARLESTON     MOSUNNY   81  57  43 N6        30.01R
PINEVILLE*     SUNNY     80  63  57 MISG      30.10S
BECKLEY        PTSUNNY   74  54  49 W9        30.08R
BLUEFIELD      MOSUNNY   76  54  46 W13G18    30.11R
$$

VAZ002-007-008-TNZ017-027-036-066-071-011700
...SOUTHWEST VIRGINIA/EAST TENNESSEE...

CITY           SKY/WX    TMP DP  RH WIND       PRES   REMARKS
WISE*          MOSUNNY   79  52  38 NW7       30.13R
ABINGDON*      SUNNY     79  54  40 NW5       30.09S
BRISTOL        MOSUNNY   81  58  45 VRB3      30.07S
KNOXVILLE      MOSUNNY   84  61  45 NE7       30.05S
OAK RIDGE      SUNNY     85  62  46 CALM      30.06S
CROSSVILLE     MOSUNNY   82  63  52 VRB6      30.10S
NASHVILLE      MOSUNNY   87  67  51 N5        30.04S HX  90
$$

...KEY TO REMARKS...
VSB - VISIBILITY IN MILES
WCI - WIND CHILL INDEX
HX  - HEAT INDEX

$$



USA.gov is the U.S. government's official web portal to all federal, state and local government web resources and services.